Please be sure to check the latest weather conditions by clicking the link and viewing our local weather information!

Check Weather

Welcome to Lakeway Airpark (3R9)

FromTheAir

We’re a community airpark nestled within the town of Lakeway, Texas (17 miles northwest of downtown Austin).

Lakeway Airpark, Inc. was formed by Lakeway residents and interested parties to own and manage Lakeway Airpark (3R9).

The Airpark is a privately owned not for profit public use airport for residents and guests of Lakeway. No public funds are used and the airport is supported by fees and fuel sales at the airport.

Lakeway Airpark is an unmanned facility open for use from Sunrise to Sunset seven days a week. Takeoffs and landings are not permitted at night, between Sunset and Sunrise, by City Ordinance.

Quick Weather Info

Available data for KAUS from the past 2 hours
AUSTIN, TX
Metar
KAUS 191653Z COR 16009G15KT 10SM FEW050 FEW200 SCT250 34/21 A2994 RMK AO2 SLP124 T03390211 $

16:53 UTC

Wind: 160° 9kt

Visibility: 10 SM

Sky: FEW 5000 ft

Temp: 34 deg C / 93.2 deg F

Dewpoint: 21 deg C / 69.8 deg F

Pressure: 29.94 inHg

TAF
KAUS 191514Z 1915/2018 20007KT P6SM FEW012 BKN250 FM191600 19012KT P6SM FEW060 BKN250 FM200000 16012KT P6SM BKN250 FM200700 19007KT P6SM SCT012 BKN200 FM201500 20012KT P6SM FEW040 BKN150